Regional Weather Roundup
Issued by NWS Little Rock, AR

Home | Current Version | Previous Version | Text Only | Print | Product List | Glossary On
Versions: 1 2 3 4 5 6 7 8 9 10 11 12 13 14 15 16 17 18 19 20 21 22 23 24 25 26 27 28 29 30 31 32 33 34 35 36 37 38 39 40 41 42 43 44 45 46 47 48 49 50
000
ASUS44 KLZK 301705
RWRLZK

WEATHER ROUNDUP FOR ARKANSAS
NATIONAL WEATHER SERVICE LITTLE ROCK AR
1200 PM CDT TUE SEP 30 2014

NOTE: "FAIR" INDICATES FEW OR NO CLOUDS BELOW 12,000 FEET WITH NO
SIGNIFICANT WEATHER AND/OR OBSTRUCTIONS TO VISIBILITY.

ARZ001-003-010-029-301800-
NORTHWEST ARKANSAS

CITY           SKY/WX    TMP DP  RH WIND       PRES   REMARKS
FAYETTEVILLE   SUNNY     79  59  50 S12       29.97F
FORT SMITH     CLOUDY    79  61  53 E8        29.93F
HARRISON       SUNNY     79  58  48 S9        29.99S
BENTONVILLE    SUNNY     81  59  47 S10G17    29.98S
ROGERS         SUNNY     80  60  50 S10G16    29.98F
SILOAM SPGS    SUNNY     81  59  47 S13G18    29.97F
HIGHFILL       SUNNY     80  59  48 S14       29.96F
SPRINGDALE     MOSUNNY   79  61  53 SE8G15    29.99F
$$

ARZ004-005-016-301800-
NORTH CENTRAL ARKANSAS

CITY           SKY/WX    TMP DP  RH WIND       PRES   REMARKS
BATESVILLE     SUNNY     84  54  34 E6        29.95F
FLIPPIN        SUNNY     81  54  39 SE5       29.97S
MTN HOME       SUNNY     81  54  39 S6        29.96F
$$

ARZ040-041-301800-
WEST CENTRAL ARKANSAS

CITY           SKY/WX    TMP DP  RH WIND       PRES   REMARKS
MENA           PTSUNNY   77  64  65 CALM      29.97F
MOUNT IDA      PTSUNNY   79  61  53 SE6       29.94F
$$

ARZ009-017-025-026-028-301800-
NORTHEAST ARKANSAS

CITY           SKY/WX    TMP DP  RH WIND       PRES   REMARKS
CORNING        LGT RAIN  82  55  39 E5        29.95F
JONESBORO      SUNNY     85  55  35 NE6       29.94F
NEWPORT        SUNNY     86  53  32 S5        29.96F
WALNUT RIDGE   SUNNY     82  54  36 CALM      29.95S
BLYTHEVILLE    SUNNY     86  58  38 CALM      29.95F HX  85
NW BLYTHEVILLE SUNNY     84  57  39 CALM      29.95F
$$

ARZ022-023-033-042-044-301800-
CENTRAL ARKANSAS

CITY           SKY/WX    TMP DP  RH WIND       PRES   REMARKS
LITTLE ROCK    PTSUNNY   84  57  39 CALM      29.94F
N LITTLE ROCK  PTSUNNY   83  60  45 SE6       29.94F
JACKSONVILLE   SUNNY     83  59  44 SE6       29.94F HAZE
SEARCY         SUNNY     84  56  38 VRB5      29.96F
HOT SPRINGS    PTSUNNY   81  62  52 VRB6      29.95F
RUSSELLVILLE   MOSUNNY   80  60  50 CALM      29.95F
CLINTON        FAIR      84  57  39 SW3       29.95F
$$

ARZ036-301800-
EAST ARKANSAS

CITY           SKY/WX    TMP DP  RH WIND       PRES   REMARKS
WEST MEMPHIS     N/A     83  62  49 S7        29.93F
$$

ARZ050-053-066-070-073-301800-
SOUTHWEST ARKANSAS

CITY           SKY/WX    TMP DP  RH WIND       PRES   REMARKS
ARKADELPHIA    FAIR      83  66  56 SE3       29.94F HX  85
CAMDEN         MOSUNNY   86  61  42 S8        29.93F HX  86
TEXARKANA      PTSUNNY   83  65  54 VRB3      29.92F HX  85
EL DORADO      PTSUNNY   84  63  49 E7        29.93F HX  85
DE QUEEN       PTSUNNY   80  65  59 E8        29.91F
$$

ARZ056-057-069-301800-
SOUTHEAST ARKANSAS

CITY           SKY/WX    TMP DP  RH WIND       PRES   REMARKS
PINE BLUFF     MOSUNNY   84  61  45 SE9       29.94F
STUTTGART      SUNNY    N/A N/A N/A CALM      29.95F
MONTICELLO     MOSUNNY   85  60  42 MISG      29.93F HX  85

$$





USA.gov is the U.S. government's official web portal to all federal, state and local government web resources and services.